GW4127 Weather Reports


time (UTC)temp
F
wind
direction
speed
knots
gust
knots
rain 1hr
in
rain 24hr
in
rain mn
in
humidity
%
barometer
mb
20260507223100 48 301 1.7 5.2 0.00 0.02 0.00 81 1018.6
20260507221547 48 301 1.7 5.2 0.00 0.02 0.00 82 1018.6
20260507220029 47 301 0.9 3.5 0.00 0.02 0.02 89 1018.8
20260507214521 48 301 0.9 4.3 0.00 0.02 0.02 93 1018.8
20260507213104 47 301 1.7 4.3 0.00 0.02 0.02 90 1018.8
20260507211523 47 301 0.9 4.3 0.00 0.02 0.02 91 1018.7
20260507210031 46 301 0.0 4.3 0.00 0.02 0.02 94 1018.6
20260507204505 47 301 0.0 7.0 0.00 0.02 0.02 95 1018.4
20260507203102 48 301 1.7 5.2 0.00 0.02 0.02 95 1018.4
20260507201555 48 301 2.6 7.8 0.00 0.02 0.02 95 1018.1
20260507200045 48 301 4.3 7.8 0.00 0.02 0.02 93 1018.0
20260507194603 48 301 1.7 3.5 0.00 0.02 0.02 94 1017.7
20260507193019 48 301 0.9 3.5 0.00 0.02 0.02 94 1017.6
20260507191511 49 301 0.9 4.3 0.00 0.02 0.02 94 1017.5
20260507190006 50 301 0.0 3.5 0.00 0.02 0.02 92 1017.4
20260507184501 51 301 0.0 4.3 0.00 0.02 0.02 91 1017.3
20260507183051 52 301 1.7 5.2 0.00 0.02 0.02 89 1017.0
20260507181538 52 301 0.9 5.2 0.00 0.02 0.02 89 1016.7
20260507180039 53 301 3.5 9.6 0.00 0.02 0.02 86 1016.7
20260507174533 54 301 2.6 7.0 0.00 0.02 0.02 85 1016.6
20260507173031 55 301 2.6 7.8 0.00 0.02 0.02 83 1016.5
20260507171517 57 301 1.7 8.7 0.00 0.02 0.02 81 1016.3
20260507170007 58 301 2.6 7.8 0.00 0.02 0.02 79 1016.4
20260507164503 57 301 3.5 8.7 0.00 0.02 0.02 80 1016.3
20260507163053 57 301 2.6 8.7 0.00 0.02 0.02 81 1016.4
20260507161538 57 301 3.5 10.4 0.00 0.02 0.02 82 1016.2
20260507160035 57 301 3.5 11.3 0.00 0.02 0.02 80 1016.2
20260507154528 58 301 5.2 11.3 0.00 0.02 0.02 79 1016.0
20260507153015 59 300 4.3 8.7 0.00 0.02 0.02 78 1016.3
20260507151505 58 301 3.5 9.6 0.00 0.02 0.02 82 1016.3
20260507150100 59 301 4.3 9.6 0.00 0.02 0.02 80 1016.3
20260507144549 59 301 1.7 8.7 0.00 0.02 0.02 79 1016.4
20260507143031 57 301 2.6 6.1 0.01 0.02 0.02 81 1016.5
20260507141519 57 301 1.7 7.0 0.01 0.02 0.02 87 1016.7
20260507140010 56 301 2.6 7.0 0.01 0.02 0.02 91 1017.0
20260507134501 52 301 3.5 7.8 0.02 0.02 0.02 94 1017.1
20260507133054 51 301 2.6 7.0 0.01 0.01 0.01 94 1017.6
20260507131609 51 301 1.7 6.1 0.01 0.01 0.01 94 1017.6
20260507130045 51 301 4.3 10.4 0.01 0.01 0.01 93 1017.6
20260507124536 52 301 2.6 10.4 0.00 0.00 0.00 90 1017.8
20260507123025 54 301 3.5 7.8 0.00 0.00 0.00 87 1017.8
20260507121519 54 301 0.9 7.0 0.00 0.00 0.00 86 1017.8
20260507120018 54 301 2.6 8.7 0.00 0.00 0.00 84 1018.0
20260507114604 55 301 1.7 7.0 0.00 0.00 0.00 83 1018.0
20260507113048 55 301 1.7 8.7 0.00 0.00 0.00 84 1018.2
20260507111547 55 301 3.5 7.8 0.00 0.00 0.00 81 1018.2
20260507110035 57 301 5.2 9.6 0.00 0.00 0.00 79 1018.3
20260507104523 56 301 0.9 4.3 0.00 0.00 0.00 80 1018.4
20260507103025 56 301 1.7 7.0 0.00 0.00 0.00 78 1018.5
20260507101507 56 301 1.7 6.1 0.00 0.00 0.00 77 1018.5
20260507100007 56 300 1.7 8.7 0.00 0.00 0.00 75 1018.7
20260507094559 58 301 0.9 10.4 0.00 0.00 0.00 73 1018.7
20260507093046 57 301 0.0 6.1 0.00 0.00 0.00 76 1018.7
20260507091524 55 301 2.6 6.1 0.00 0.00 0.00 80 1018.7
20260507090013 55 301 1.7 5.2 0.00 0.00 0.00 79 1018.6
20260507084557 54 301 0.9 4.3 0.00 0.00 0.00 81 1018.4
20260507083041 51 301 1.7 5.2 0.00 0.00 0.00 88 1018.3
20260507081535 51 301 0.9 8.7 0.00 0.00 0.00 91 1018.4
20260507080019 51 301 0.9 5.2 0.00 0.00 0.00 90 1018.4
20260507074503 51 301 1.7 5.2 0.00 0.00 0.00 88 1018.5
20260507073052 52 301 1.7 5.2 0.00 0.00 0.00 86 1018.3
20260507071559 52 301 1.7 6.1 0.00 0.00 0.00 83 1018.3
20260507070017 51 301 0.9 5.2 0.00 0.00 0.00 82 1018.2
20260507064600 49 301 0.9 5.2 0.00 0.00 0.00 85 1018.1
20260507063056 48 301 1.7 5.2 0.00 0.00 0.00 81 1018.1
20260507061556 48 301 2.6 4.3 0.00 0.00 0.00 80 1017.7
20260507060047 47 301 0.9 4.3 0.00 0.00 0.00 81 1017.5
20260507054518 47 301 1.7 5.2 0.00 0.00 0.00 83 1017.4
20260507053012 46 301 1.7 4.3 0.00 0.00 0.00 90 1017.4
20260507051503 46 301 1.7 4.3 0.00 0.00 0.00 95 1017.3
20260507050002 45 301 1.7 4.3 0.00 0.00 0.00 96 1017.2
20260507044558 46 301 1.7 7.0 0.00 0.00 0.00 97 1017.1
20260507043050 46 301 2.6 5.2 0.00 0.00 0.00 96 1017.1
20260507041534 45 301 2.6 7.0 0.00 0.00 0.00 96 1017.2
20260507040027 45 301 2.6 7.0 0.00 0.00 0.00 96 1017.2
20260507034530 45 301 3.5 7.0 0.00 0.00 0.00 95 1017.1
20260507033014 46 300 3.5 7.0 0.00 0.00 0.00 95 1017.1
20260507031554 46 301 3.5 7.8 0.00 0.00 0.00 94 1017.2
20260507030037 46 301 2.6 7.0 0.00 0.00 0.00 92 1017.2
20260507024536 47 301 1.7 5.2 0.00 0.00 0.00 87 1017.1
20260507023027 48 301 2.6 5.2 0.00 0.00 0.00 80 1017.2
20260507021516 48 301 1.7 4.3 0.00 0.00 0.00 84 1017.2
20260507020007 48 301 1.7 3.5 0.00 0.00 0.00 79 1017.2
20260507014511 47 301 1.7 4.3 0.00 0.00 0.00 84 1017.2
20260507013054 48 301 1.7 4.3 0.00 0.00 0.00 77 1017.4
20260507011540 48 301 1.7 3.5 0.00 0.00 0.00 77 1017.3
20260507010027 49 301 0.9 4.3 0.00 0.00 0.00 77 1017.3
20260507004516 48 301 1.7 4.3 0.00 0.00 0.00 77 1017.7
20260507003006 48 301 1.7 4.3 0.00 0.00 0.00 79 1017.7
20260507001552 48 301 1.7 4.3 0.00 0.00 0.00 79 1017.8
20260507000032 47 301 2.6 5.2 0.00 0.00 0.00 88 1017.8
20260506234519 46 301 1.7 4.3 0.00 0.00 0.00 91 1017.8
20260506233009 47 301 1.7 4.3 0.00 0.00 0.00 94 1018.0
20260506231602 48 301 4.3 7.0 0.00 0.00 0.00 92 1017.9
20260506231501 48 301 3.5 7.0 0.00 0.00 0.00 92 1017.9
20260506230050 47 301 2.6 7.0 0.00 0.01 0.00 87 1017.9
20260506224538 47 301 3.5 6.1 0.00 0.01 0.00 87 1017.8